Regional Weather Roundup
Issued by NWS

Home | Current Version | Previous Version | Text Only | Print | Product List | Glossary On
Versions: 1 2 3 4 5 6 7 8 9 10 11 12 13 14 15 16 17 18 19 20 21 22 23 24 25 26 27 28 29 30 31 32 33 34 35 36 37 38 39 40 41 42 43 44 45 46 47 48 49 50
000
ASUS44 KFWD 061703
RWRTX
NORTH TEXAS HOURLY WEATHER ROUNDUP
NATIONAL WEATHER SERVICE FORT WORTH TX
1100 AM CST FRI MAR 06 2015

NOTE: "FAIR" INDICATES FEW OR NO CLOUDS BELOW 12,000 FEET WITH NO
SIGNIFICANT WEATHER AND/OR OBSTRUCTIONS TO VISIBILITY.

TXZ118-119-061800-
DALLAS/FORT WORTH METROPLEX

CITY           SKY/WX    TMP DP  RH WIND       PRES   REMARKS
DFW AIRPORT    MOSUNNY   42  20  41 VRB5      30.59F WCI  39
DALLAS LOVE    MOSUNNY   43  24  47 CALM      30.61S
FTW MEACHAM    SUNNY     43  23  45 SW9       30.59S WCI  38
DAL-EXECUTIVE  SUNNY     44  20  38 S6        30.59S
FTW-ALLIANCE   SUNNY     44  21  40 SW8       30.59S WCI  39
FTW-SPINKS     SUNNY     43  19  39 CALM      30.61S
ARLINGTON        N/A     44  32  62 MISG      30.60S
GRAND PRAIRIE  SUNNY     43  21  42 S7        30.62S WCI  39
MESQUITE       SUNNY     43  25  49 SE3       30.62S
LANCASTER      SUNNY     41  21  45 SE5       30.62F WCI  38
$$

TXZ091>094-102>105-117-120-121-131>134-061800-
NORTH CENTRAL TEXAS

CITY           SKY/WX    TMP DP  RH WIND       PRES   REMARKS
SHRMAN/DENISON SUNNY     43  31  61 S10       30.59S WCI  37
GAINESVILLE    SUNNY     43  23  45 S8        30.59S WCI  38
BOWIE          SUNNY     42  26  52 S9        30.55F WCI  37
BRIDGEPORT     SUNNY     43  26  50 SW8       30.59F WCI  38
DECATUR        SUNNY     41  22  45 S6        30.57S WCI  38
DENTON         SUNNY     42  24  49 S10       30.59F WCI  36
MCKINNEY       SUNNY     42  22  44 S8        30.60S WCI  37
GREENVILLE     SUNNY     43  25  49 S3        30.61S
TERRELL        SUNNY     43  19  38 VRB5      30.62S
WAXAHACHIE     SUNNY     41  22  48 SE5       30.61F WCI  38
CLEBURNE       SUNNY     41  19  42 SE7       30.60F WCI  36
GRANBURY       SUNNY     44  20  38 S6        30.61F
$$

TXZ083>090-098>101-113>116-127>130-139>142-154-155-061800-
WESTERN NORTH TEXAS

CITY           SKY/WX    TMP DP  RH WIND       PRES   REMARKS
WICHITA FALLS  SUNNY     44  25  47 SW9       30.54S WCI  39
WF-KICKAPOO    SUNNY     45  26  47 SW7       30.56F
VERNON         SUNNY     47  23  40 SW17      30.52S WCI  40
ABILENE        SUNNY     42  24  49 S13       30.53F WCI  35
ABILENE-DYESS  SUNNY     44  21  39 SW14      30.51F WCI  38
BRECKENRIDGE   SUNNY     46  24  41 SW9       30.55S
GRAHAM         SUNNY     43  26  51 S5        30.54F
MINERAL WELLS  SUNNY     41  24  51 SE6       30.56F WCI  37
STEPHENVILLE   SUNNY     42  21  44 S7        30.59F WCI  37
COMANCHE       SUNNY     43  24  45 S7        30.57F WCI  39
BROWNWOOD      SUNNY     41  19  42 S7        30.57F WCI  36
COLEMAN        SUNNY     40  26  58 S12       30.56S WCI  33
BRADY          SUNNY     43  18  36 SE5       30.54F
$$

TXZ143>147-156>162-174-175-061800-
CENTRAL TEXAS

CITY           SKY/WX    TMP DP  RH WIND       PRES   REMARKS
WACO           SUNNY     43  21  41 S6        30.62S WCI  39
WACO-MCGREGOR  SUNNY     45  25  45 CALM      30.63S
HILLSBORO      SUNNY     43  23  45 CALM      30.60F
CORSICANA      SUNNY     41  21  44 CALM      30.62F
MEXIA          SUNNY     42  19  40 NE6       30.60F WCI  38
HEARNE         SUNNY     43  21  42 CALM      30.64S
CAMERON        SUNNY     43  24  46 E5        30.62F
TEMPLE         SUNNY     45  19  36 SE5       30.60F
KILLEEN        SUNNY     41  19  42 VRB5      30.58F WCI  38
KILLEEN-SKYLRK SUNNY     43  21  42 CALM      30.57
FORT HOOD      SUNNY     40  19  41 SE7       30.58F WCI  36
GATESVILLE     SUNNY     41  19  42 E3        30.62F
HAMILTON       SUNNY     42  20  41 S5        30.58F WCI  39
LAMPASAS       SUNNY     41  21  43 E3        30.58F
$$

TXZ095>097-106>112-122>126-135>138-148>153-164>167-061800-
EAST TEXAS

CITY           SKY/WX    TMP DP  RH WIND       PRES   REMARKS
PARIS          SUNNY     43  23  45 S6        30.61S WCI  39
SULPHUR SPRNGS SUNNY     42  20  40 SW3       30.63S
MOUNT PLEASANT SUNNY     42  24  48 S3        30.63S
GILMER         SUNNY     40  19  43 CALM      30.61S
MINEOLA        SUNNY     43  14  31 CALM      30.62S
TYLER          SUNNY     43  15  32 SE5       30.60S
LONGVIEW       SUNNY     42  19  39 NE5       30.60F WCI  39
MARSHALL       SUNNY     42  18  37 CALM      30.63S
ATHENS         SUNNY     41  18  38 SE3       30.61S
PALESTINE      SUNNY     43  19  38 CALM      30.62F
JACKSONVILLE   SUNNY     42  18  38 NE7       30.61S WCI  37
HENDERSON      SUNNY     42  20  40 N8        30.61S WCI  37
NACOGDOCHES    SUNNY     43  19  39 SE6       30.61S WCI  39
LUFKIN         SUNNY     45  18  34 E13       30.61F WCI  39
$$

SUPPLEMENTAL OBSERVATIONS (CENTRAL)

CITY           SKY/WX    TMP DP  RH WIND       PRES   REMARKS
$$

SUPPLEMENTAL OBSERVATIONS (WEST)

CITY           SKY/WX    TMP DP  RH WIND       PRES   REMARKS
$$

SUPPLEMENTAL OBSERVATIONS (EAST)

CITY           SKY/WX    TMP DP  RH WIND       PRES   REMARKS
$$

SUPPLEMENTAL OBSERVATIONS ARE A COLLECTION OF AUTOMATED INSTRUMENTS
THAT ARE MAINTAINED BY A VARIETY OF FEDERAL AND STATE AGENCIES.
CERTAIN ELEMENTS...SUCH AS HUMIDITY VALUES AND SUSTAINED WIND
SPEEDS...MAY BE APPROXIMATED.



USA.gov is the U.S. government's official web portal to all federal, state and local government web resources and services.